Weather History for KOMA - May, 2012

Change the Weather History Date:

Wednesday, May 16, 2012

  Actual Average Record
Temperature  
Mean Temperature 65 °F 62 °F  
Max Temperature 80 °F 74 °F 93 °F (1944)
Min Temperature 49 °F 51 °F 33 °F (2014)
Degree Days  
Heating Degree Days 0 5  
Month to date heating degree days 24 102  
Since 1 July heating degree days 4764 6104  
Cooling Degree Days 0 2  
Month to date cooling degree days 68 21  
Year to date cooling degree days 136 37  
Growing Degree Days 14 (Base 50)    
Moisture  
Dew Point 37 °F    
Average Humidity 40    
Maximum Humidity 61    
Minimum Humidity 19    
Precipitation  
Precipitation 0.00 in 0.16 in 1.75 in (1896)
Month to date precipitation 2.66 2.36  
Year to date precipitation 9.85 8.88  
Snow  
Snow 0.00 in 0.00 in - ()
Month to date snowfall 0.0 0.1  
Since 1 July snowfall 20.4 26.5  
Snow Depth 0.00 in    
Sea Level Pressure  
Sea Level Pressure 30.07 in    
Wind  
Wind Speed 8 mph (East)    
Max Wind Speed 16 mph    
Max Gust Speed 20 mph    
Visibility 10 miles    
Events      
T = Trace of Precipitation, MM = Missing Value Source: NWS Daily Summary

Daily Weather History Graph

Daily Weather History Graph

Search for Another Location

Airport or City:

Trip Planner

Search our weather history database for the weather conditions in past years. The results will help you decide how hot, cold, wet, or windy it might be!

Date:

Astronomy

May. 16, 2012 Rise Set
Actual Time 6:03 AM CDT 8:37 PM CDT
Civil Twilight 5:31 AM CDT 9:08 PM CDT
Nautical Twilight 4:52 AM CDT 9:48 PM CDT
Astronomical Twilight 4:08 AM CDT 10:32 PM CDT
Moon 3:36 AM CDT (5/16) 4:51 PM CDT (5/16)
Length of Visible Light 15h 36m
Length of Day
14h 33m
Waning Crescent, 16% of the Moon is Illuminated
May 16
Waning Crescent
May 20
New
May 28
First Quarter
Jun 4
Full
Jun 11
Last Quarter

Hourly Weather History & Observations

Time (CDT) Temp. Dew Point Humidity Pressure Visibility Wind Dir Wind Speed Gust Speed Precip Events Conditions
12:52 AM 59.0 °F 37.0 °F 44% 30.07 in 10.0 mi NNE 8.1 mph - N/A   Clear
1:52 AM 57.9 °F 36.0 °F 44% 30.08 in 10.0 mi North 8.1 mph - N/A   Clear
2:52 AM 55.0 °F 36.0 °F 49% 30.09 in 10.0 mi North 5.8 mph - N/A   Clear
3:52 AM 54.0 °F 36.0 °F 51% 30.10 in 10.0 mi North 3.5 mph - N/A   Clear
4:52 AM 53.1 °F 37.0 °F 55% 30.12 in 10.0 mi North 5.8 mph - N/A   Clear
5:52 AM 50.0 °F 37.0 °F 61% 30.13 in 10.0 mi North 5.8 mph - N/A   Partly Cloudy
6:52 AM 51.1 °F 37.9 °F 61% 30.14 in 10.0 mi NNW 3.5 mph - N/A   Partly Cloudy
7:52 AM 55.9 °F 39.0 °F 53% 30.16 in 10.0 mi NNW 4.6 mph - N/A   Clear
8:52 AM 61.0 °F 39.9 °F 46% 30.16 in 10.0 mi North 4.6 mph - N/A   Clear
9:52 AM 64.9 °F 37.9 °F 37% 30.15 in 10.0 mi ENE 9.2 mph - N/A   Clear
10:52 AM 69.1 °F 36.0 °F 30% 30.13 in 10.0 mi East 10.4 mph - N/A   Clear
11:52 AM 70.0 °F 36.0 °F 29% 30.14 in 10.0 mi SE 5.8 mph - N/A   Clear
12:52 PM 72.0 °F 37.0 °F 28% 30.12 in 10.0 mi Variable 5.8 mph - N/A   Clear
1:52 PM 75.0 °F 37.9 °F 26% 30.09 in 10.0 mi Calm Calm - N/A   Clear
2:52 PM 75.9 °F 36.0 °F 23% 30.07 in 10.0 mi SSE 6.9 mph - N/A   Clear
3:52 PM 79.0 °F 36.0 °F 21% 30.04 in 10.0 mi Variable 5.8 mph - N/A   Clear
4:52 PM 78.1 °F 33.1 °F 19% 30.01 in 10.0 mi ESE 8.1 mph - N/A   Partly Cloudy
5:52 PM 79.0 °F 34.0 °F 20% 29.99 in 10.0 mi SSE 9.2 mph - N/A   Partly Cloudy
6:52 PM 78.1 °F 36.0 °F 22% 29.98 in 10.0 mi SE 10.4 mph - N/A   Partly Cloudy
7:52 PM 75.0 °F 37.9 °F 26% 29.97 in 10.0 mi SE 11.5 mph - N/A   Scattered Clouds
8:52 PM 70.0 °F 39.9 °F 33% 29.97 in 10.0 mi SE 10.4 mph - N/A   Scattered Clouds
9:52 PM 69.1 °F 39.0 °F 33% 29.99 in 10.0 mi SE 9.2 mph - N/A   Scattered Clouds
10:52 PM 68.0 °F 39.9 °F 36% 29.99 in 10.0 mi SSE 10.4 mph - N/A   Scattered Clouds
11:52 PM 64.9 °F 42.1 °F 43% 29.98 in 10.0 mi SSE 15.0 mph - N/A   Scattered Clouds